TimeEST,TemperatureF,Dew PointF,Humidity,Sea Level PressureIn,VisibilityMPH,Wind Direction,Wind SpeedMPH,Gust SpeedMPH,PrecipitationIn,Events,Conditions,WindDirDegrees,DateUTC
12:16 AM,39.2,21.2,49,30.04,10.0,SW,9.2,-,N/A,,Clear,220,2013-11-15 05:16:00
12:37 AM,41.0,21.2,45,30.04,10.0,SSW,6.9,-,N/A,,Clear,210,2013-11-15 05:37:00
12:57 AM,41.0,21.2,45,30.04,10.0,SSW,8.1,-,N/A,,Clear,210,2013-11-15 05:57:00
1:17 AM,41.0,21.2,45,30.03,10.0,SSW,6.9,-,N/A,,Clear,210,2013-11-15 06:17:00
1:32 AM,41.0,21.2,45,30.03,10.0,SW,9.2,-,N/A,,Clear,220,2013-11-15 06:32:00
1:52 AM,42.8,19.4,39,30.03,10.0,SW,9.2,-,N/A,,Clear,220,2013-11-15 06:52:00
2:12 AM,42.8,19.4,39,30.03,10.0,SW,9.2,-,N/A,,Clear,220,2013-11-15 07:12:00
2:32 AM,42.8,19.4,39,30.03,10.0,SW,11.5,-,N/A,,Clear,230,2013-11-15 07:32:00
2:52 AM,42.8,19.4,39,30.04,10.0,SW,13.8,-,N/A,,Clear,230,2013-11-15 07:52:00
3:12 AM,42.8,19.4,39,30.03,10.0,SW,11.5,17.3,N/A,,Clear,230,2013-11-15 08:12:00
3:32 AM,42.8,19.4,39,30.03,10.0,SW,11.5,-,N/A,,Clear,230,2013-11-15 08:32:00
3:52 AM,42.8,19.4,39,30.03,10.0,SW,10.4,-,N/A,,Clear,220,2013-11-15 08:52:00
4:13 AM,39.2,23.0,52,30.03,10.0,South,5.8,-,N/A,,Clear,190,2013-11-15 09:13:00
4:33 AM,39.2,23.0,52,30.03,10.0,SSW,5.8,-,N/A,,Clear,200,2013-11-15 09:33:00
4:53 AM,41.0,21.2,45,30.03,10.0,SSW,8.1,-,N/A,,Clear,210,2013-11-15 09:53:00
5:13 AM,41.0,21.2,45,30.03,10.0,SW,8.1,-,N/A,,Clear,220,2013-11-15 10:13:00
5:33 AM,42.8,21.2,42,30.03,10.0,SSW,8.1,-,N/A,,Scattered Clouds,210,2013-11-15 10:33:00
5:53 AM,41.0,21.2,45,30.03,10.0,SSW,8.1,-,N/A,,Clear,210,2013-11-15 10:53:00
6:13 AM,41.0,23.0,49,30.03,10.0,SSW,8.1,-,N/A,,Clear,210,2013-11-15 11:13:00
6:34 AM,41.0,23.0,49,30.03,10.0,SSW,5.8,-,N/A,,Clear,210,2013-11-15 11:34:00
6:54 AM,39.2,23.0,52,30.04,10.0,SSW,8.1,-,N/A,,Clear,210,2013-11-15 11:54:00
7:14 AM,41.0,23.0,49,30.04,10.0,SSW,9.2,-,N/A,,Clear,210,2013-11-15 12:14:00
7:34 AM,41.0,23.0,49,30.04,10.0,SSW,8.1,-,N/A,,Clear,210,2013-11-15 12:34:00
7:54 AM,41.0,23.0,49,30.04,10.0,SW,6.9,-,N/A,,Clear,220,2013-11-15 12:54:00
8:14 AM,42.8,23.0,46,30.05,10.0,SSW,6.9,-,N/A,,Clear,210,2013-11-15 13:14:00
8:34 AM,42.8,24.8,49,30.05,10.0,SW,8.1,-,N/A,,Clear,220,2013-11-15 13:34:00
8:54 AM,44.6,23.0,43,30.05,10.0,SSW,8.1,-,N/A,,Clear,210,2013-11-15 13:54:00
9:14 AM,44.6,23.0,43,30.06,10.0,SSW,8.1,-,N/A,,Clear,210,2013-11-15 14:14:00
9:34 AM,44.6,23.0,43,30.05,10.0,SW,10.4,18.4,N/A,,Clear,220,2013-11-15 14:34:00
9:54 AM,44.6,23.0,43,30.05,10.0,SW,10.4,-,N/A,,Clear,220,2013-11-15 14:54:00
10:14 AM,46.4,21.2,37,30.06,10.0,SW,15.0,-,N/A,,Clear,230,2013-11-15 15:14:00
10:34 AM,48.2,23.0,37,30.05,10.0,WSW,17.3,26.5,N/A,,Clear,240,2013-11-15 15:34:00
10:54 AM,48.2,24.8,40,30.05,10.0,WSW,17.3,20.7,N/A,,Clear,240,2013-11-15 15:54:00
11:15 AM,48.2,24.8,40,30.05,10.0,WSW,13.8,21.9,N/A,,Clear,250,2013-11-15 16:15:00
11:35 AM,46.4,24.8,43,30.05,10.0,WSW,11.5,-,N/A,,Clear,240,2013-11-15 16:35:00
11:55 AM,46.4,24.8,43,30.05,10.0,SW,16.1,20.7,N/A,,Clear,230,2013-11-15 16:55:00
12:15 PM,46.4,24.8,43,30.04,10.0,WSW,13.8,-,N/A,,Clear,240,2013-11-15 17:15:00
12:35 PM,48.2,26.6,43,30.03,10.0,SW,13.8,-,N/A,,Clear,230,2013-11-15 17:35:00
12:55 PM,48.2,26.6,43,30.03,10.0,SW,10.4,-,N/A,,Clear,230,2013-11-15 17:55:00
1:15 PM,48.2,24.8,40,30.03,10.0,SW,15.0,-,N/A,,Clear,230,2013-11-15 18:15:00
1:35 PM,48.2,26.6,43,30.01,10.0,WSW,6.9,-,N/A,,Clear,240,2013-11-15 18:35:00
1:56 PM,48.2,24.8,40,30.01,10.0,SSW,9.2,-,N/A,,Clear,210,2013-11-15 18:56:00
2:16 PM,51.8,24.8,35,30.01,10.0,SSW,8.1,-,N/A,,Clear,210,2013-11-15 19:16:00
2:36 PM,51.8,24.8,35,30.01,10.0,SW,9.2,-,N/A,,Clear,220,2013-11-15 19:36:00
2:56 PM,50.0,26.6,40,30.01,10.0,SSW,9.2,-,N/A,,Clear,200,2013-11-15 19:56:00
3:16 PM,50.0,24.8,37,30.01,10.0,SSW,10.4,-,N/A,,Scattered Clouds,210,2013-11-15 20:16:00
3:36 PM,50.0,28.4,43,30.01,10.0,SSW,12.7,-,N/A,,Scattered Clouds,200,2013-11-15 20:36:00
3:56 PM,48.2,28.4,46,30.01,10.0,SSW,11.5,-,N/A,,Clear,200,2013-11-15 20:56:00
4:16 PM,48.2,28.4,46,30.01,10.0,South,10.4,-,N/A,,Clear,190,2013-11-15 21:16:00
4:36 PM,48.2,28.4,46,30.02,10.0,SSW,10.4,-,N/A,,Scattered Clouds,200,2013-11-15 21:36:00
4:56 PM,48.2,26.6,43,30.02,10.0,SSW,11.5,18.4,N/A,,Overcast,210,2013-11-15 21:56:00
5:16 PM,46.4,26.6,46,30.02,10.0,SW,8.1,-,N/A,,Overcast,220,2013-11-15 22:16:00
5:37 PM,46.4,26.6,46,30.03,10.0,SSW,5.8,-,N/A,,Mostly Cloudy,210,2013-11-15 22:37:00
5:57 PM,46.4,26.6,46,30.03,10.0,SSW,6.9,-,N/A,,Overcast,210,2013-11-15 22:57:00
6:17 PM,46.4,28.4,50,30.04,10.0,SW,9.2,-,N/A,,Overcast,220,2013-11-15 23:17:00
6:32 PM,46.4,28.4,50,30.04,10.0,SSW,8.1,-,N/A,,Overcast,200,2013-11-15 23:32:00
6:52 PM,46.4,28.4,50,30.03,10.0,SSW,6.9,-,N/A,Rain,Light Rain,210,2013-11-15 23:52:00
7:12 PM,46.4,28.4,50,30.03,10.0,SSW,6.9,-,N/A,,Overcast,210,2013-11-16 00:12:00
7:32 PM,46.4,28.4,50,30.03,10.0,SSW,5.8,-,N/A,,Overcast,210,2013-11-16 00:32:00
7:52 PM,44.6,28.4,53,30.03,10.0,SSW,8.1,-,N/A,,Mostly Cloudy,200,2013-11-16 00:52:00
8:12 PM,44.6,28.4,53,30.05,10.0,South,4.6,-,N/A,,Mostly Cloudy,190,2013-11-16 01:12:00
8:32 PM,42.8,28.4,57,30.05,10.0,South,3.5,-,N/A,,Scattered Clouds,180,2013-11-16 01:32:00
8:53 PM,42.8,30.2,61,30.05,10.0,South,4.6,-,N/A,,Scattered Clouds,190,2013-11-16 01:53:00
9:13 PM,42.8,28.4,57,30.06,10.0,SSW,4.6,-,N/A,,Clear,200,2013-11-16 02:13:00
9:33 PM,41.0,30.2,65,30.06,10.0,South,4.6,-,N/A,,Mostly Cloudy,180,2013-11-16 02:33:00
9:53 PM,42.8,30.2,61,30.05,10.0,South,5.8,-,N/A,,Overcast,180,2013-11-16 02:53:00
10:13 PM,44.6,30.2,57,30.06,10.0,SSW,6.9,-,N/A,,Overcast,200,2013-11-16 03:13:00
10:33 PM,44.6,30.2,57,30.06,10.0,SSW,5.8,-,N/A,,Overcast,200,2013-11-16 03:33:00
10:53 PM,44.6,30.2,57,30.06,10.0,SSW,5.8,-,N/A,,Overcast,200,2013-11-16 03:53:00
11:13 PM,42.8,30.2,61,30.06,10.0,SSW,5.8,-,N/A,,Overcast,200,2013-11-16 04:13:00
11:33 PM,42.8,30.2,61,30.07,10.0,SSW,5.8,-,N/A,,Overcast,200,2013-11-16 04:33:00
11:54 PM,44.6,30.2,57,30.07,10.0,SSW,5.8,-,N/A,,Overcast,210,2013-11-16 04:54:00